SCP
0 0 0 0 0 0 0 0 0 0 0 0 0 0 0 0 0 0 0 0 0 0 0 0 0 0 0 0 0 0 0 0 -0 0 -0 0 0 -0 0 0 0 0 0 0 0 -0 -0 0 0 0 0 0 0 0
0 0 0 0 0 0 0 0 0 0 0 0 0 0 0 0 0 0 0 0 0 0 0 0 0 0 0 0 0 0 0 -0 0 0 0 0 0 0 0 0 0 0 0 0 0 0 -0 0 0 0 0 0 0 0
0 0 0 0 0 0 0 0 0 0 0 0 0 0 0 0 0 0 0 0 0 0 0 0 0 0 0 0 0 0 0 0 0 0 0 0 0 0 0 -0 0 -0 0 0 0 0 0 0 0 0 0 0 0 0
0 0 0 0 0 0 0 0 0 0 0 -0 0 0 0 0 0 0 0 0 0 0 0 0 0 0 0 0 0 0 0 0 0 0 0 0 0 -0 0 -0 0 0 0 0 0 0 0 0 0 0 0 0 0 0
0 0 0 0 0 0 0 0 0 0 0 -0 -0 0 0 0 0 0 0 0 0 0 0 0 -0 0 0 0 0 0 0 0 0 0 0 0 0 0 0 -0 -0 -0 0 0 0 0 0 0 0 0 0 0 0 0
0 0 0 0 0 0 0 0 0 0 0 0 -0 -0 0 0 0 0 0 0 0 0 0 0 0 0 0 0 0 0 0 0 0 0 0 0 0 -0 -0 -0 0 0 -0 0 0 0 0 0 0 0 0 0 0 0
0 0 0 0 0 0 0 0 0 0 0 0 0 0 0 0 0 0 0 0 0 0 0 0 0 0 0 0 0 0 0 0 0 0 0 0 0 -0 0 -0 -0 -0 0 0 0 0 0 0 0 0 0 0 0 0
0 0 0 0 0 0 0 0 0 0 0 0 0 0 0 0 0 0 0 0 0 0 0 0 0 0 0 0 0 0 0 0 0 0 0 0 0 0 0 0 -0 -0 -0 0 0 0 0 0 0 0 0 0 0 0
0 0 0 0 0 0 0 0 0 0 0 0 0 0 0 0 0 0 0 0 0 0 0 0 0 0 0 0 0 0 0 0 0 0 0 0 0 0 0 0 0 0 -0 -0 -0 0 0 0 0 0 0 0 0 0
0 0 0 0 0 0 0 0 0 0 0 0 0 0 0 0 0 0 0 0 0 0 0 0 0 0 0 0 0 0 0 0 0 0 0 0 0 0 0 0 0 -0 0 0 0 0 0 0 0 0 0 0 0 0
0 0 0 0 0 0 0 0 0 0 -0 0 0 0 0 0 0 0 0 0 0 0 0 0 0 0 0 0 0 0 0 0 0 0 0 0 0 0 0 0 0 0 -0 0 0 -0 -0 0 0 0 0 0 0 0
0 0 0 0 0 0 0 0 0 0 0 0 0 0 0 0 0 0 0 0 0 0 0 0 0 0 0 0 0 0 0 0 0 0 0 0 0 0 0 0 -0 0 -0 -0 0 0 -0 -0 0 0 0 0 0 0
0 0 0 0 0 0 0 0 0 0 0 0 0 0 0 0 0 0 0 0 0 0 0 0 0 0 0 0 0 0 0 0 0 0 0 0 0 0 0 0 0 0 0 0 0 0 0 -0 -0 0 0 0 0 0
0 0 0 0 0 0 0 0 0 0 0 0 0 0 0 0 0 0 0 0 0 0 0 0 0 0 0 0 0 0 0 0 0 0 0 0 0 0 0 0 0 -0 -0 -0 -0 0 -0 -0 -0 0 0 0 0 0
0 0 0 0 0 0 0 0 0 0 0 0 0 0 0 0 -0 -0 0 0 0 0 0 0 0 0 0 0 0 0 0 0 0 0 0 0 0 0 0 0 0 0 -0 -0 -0 -0 -0 -0 -0 -0 0 0 0 0
0 0 0 0 0 0 0 0 0 0 0 0 0 0 0 0 0 0 0 0 0 0 0 0 0 0 0 0 0 0 0 0 0 0 0 0 0 0 0 0 0 0 0 0 0 0 -0 -0 0 0 0 0 0 0
0 0 0 0 0 0 0 0 0 0 0 0 0 0 0 0 -0 -0 -0 0 0 0 0 0 0 0 0 0 0 0 0 0 0 0 0 0 0 0 0 0 0 0 0 0 -0 0 0 0 0 -0 0 0 0 0
0 0 0 0 0 0 0 0 0 0 0 0 0 0 0 0 0 -0 0 0 -0 0 0 0 0 0 0 0 0 0 0 0 0 -0 0 0 0 0 0 0 0 0 0 0 0 -0 -0 0 0 0 -0 0 0 0
0 0 0 0 0 0 0 0 0 0 0 0 0 0 0 0 0 -0 -0 0 0 -0 0 0 0 0 0 0 0 0 0 0 0 0 0 0 0 0 0 0 0 0 -0 0 0 -0 -0 -0 0 0 0 -0 -0 0
0 0 0 0 0 0 0 0 0 0 0 0 0 0 0 0 0 0 0 0 0 0 0 0 0 0 -0 -0 0 0 0 0 0 0 -0 0 0 0 0 0 0 -0 0 0 0 0 -0 0 -0 -0 -0 -0 -0 -0
0 0 0 0 0 0 0 0 0 0 0 0 0 0 0 0 0 0 0 0 0 0 0 0 0 0 -0 -0 0 0 0 -0 0 0 0 0 0 0 0 0 0 0 -0 0 0 0 0 0 0 -0 -0 -0 -0 -0
0 0 0 0 0 0 0 0 0 0 0 0 0 0 0 0 0 0 0 0 0 0 0 0 0 -0 0 0 0 0 0 0 0 0 0 0 0 0 0 0 0 0 0 0 0 0 0 0 -0 0 0 -0 -0 -0
0 0 0 0 0 0 0 0 0 0 0 0 0 0 0 0 0 0 0 0 0 0 0 0 0 0 -0 -0 0 0 0 0 0 0 0 -0 0 0 0 0 0 0 0 0 0 0 0 0 0 0 0 0 0 0
0 0 0 0 0 0 0 0 0 0 0 0 0 0 0 0 0 0 0 0 0 0 0 0 0 0 0 0 0 0 0 0 0 0 0 0 0 0 0 0 0 0 0 0 0 0 0 0 0 0 0 0 0 0
0 0 0 0 0 0 0 -0 -0 0 0 0 0 0 0 0 0 0 0 0 0 0 0 0 0 -0 0 0 0 0 0 0 0 0 0 0 -0 0 0 0 0 0 0 0 0 0 0 0 0 0 0 0 0 0
0 0 0 0 0 0 0 0 -0 -0 0 0 0 0 0 0 0 0 0 0 0 0 0 0 0 0 0 0 0 0 0 0 0 0 0 0 -0 0 0 0 0 0 0 0 0 0 0 0 0 0 0 0 0 0
0 0 0 0 0 0 0 -0 -0 0 0 0 0 0 0 0 0 0 0 0 0 0 0 0 0 0 0 0 0 0 0 0 0 0 0 0 -0 0 0 0 0 0 0 0 0 0 0 0 0 0 0 0 0 0
0 0 0 0 0 0 0 0 0 0 -0 -0 0 0 0 0 0 0 0 0 0 0 0 0 0 0 0 0 0 0 0 0 0 -0 0 0 0 0 0 0 0 0 0 0 0 0 0 0 0 0 0 0 0 0
0 0 0 0 0 0 0 0 0 0 0 0 0 0 0 -0 -0 0 0 -0 0 0 0 0 0 0 0 0 0 0 0 0 0 0 0 0 0 0 0 0 0 0 0 0 0 0 0 0 0 0 0 0 0 0
0 0 0 0 -0 -0 -0 0 0 0 0 0 0 0 0 -0 0 0 0 0 0 0 0 0 0 0 0 0 0 -0 0 0 0 0 0 0 0 0 0 0 0 0 0 0 0 0 0 0 0 0 0 0 0 0
0 0 0 0 0 0 -0 -0 0 0 0 0 0 0 0 0 0 0 0 0 0 0 0 0 0 0 0 0 -0 0 0 0 0 0 0 0 0 0 0 0 0 0 0 0 0 0 0 0 0 0 0 0 0 0
0 0 0 -0 -0 -0 0 0 -0 0 0 -0 -0 0 0 0 0 0 0 0 0 0 0 0 0 0 0 0 0 0 0 0 0 0 0 0 0 0 0 0 0 0 0 0 0 0 0 0 0 0 0 0 0 0
0 0 0 0 -0 0 0 -0 0 0 0 -0 0 0 0 0 0 0 0 0 0 0 0 0 0 0 0 0 0 0 0 0 0 0 0 0 0 0 0 0 0 0 0 0 0 0 0 0 0 0 0 0 0 0
Wind_Speed_500mb
54 56 55 58 58 53 55 56 55 52 51 51 52 56 56 47 53 47 40 21 36 17 53 28 16 18 16 9 5 21 24 11 13 14 9 11 10 14 14 12 11 10 7 6 7 7 5 42 24 20 19 32 36 36
57 58 57 58 56 59 61 58 56 50 51 51 53 55 56 51 56 45 37 13 28 43 58 63 47 39 35 34 16 6 15 22 13 7 8 8 6 7 15 8 17 4 8 7 15 8 16 27 22 36 31 33 36 35
59 60 60 58 61 64 64 55 52 50 50 51 54 56 54 55 56 45 36 25 28 30 49 38 37 23 15 10 15 10 8 9 10 16 11 5 9 4 8 6 8 8 20 6 14 20 5 12 29 31 40 34 31 30
61 59 61 62 66 63 57 52 52 54 54 55 55 56 57 61 53 39 32 15 28 15 12 9 8 8 13 9 11 8 22 22 23 26 10 7 8 2 4 5 7 10 18 22 1 15 26 34 40 32 36 30 22 24
55 56 66 72 63 57 58 57 60 62 60 58 55 57 57 61 46 37 28 22 30 18 11 36 37 29 19 8 13 10 13 14 13 14 7 5 11 13 11 1 6 18 14 8 7 38 23 35 40 38 30 30 14 20
61 66 66 66 60 54 59 60 58 57 55 48 48 55 57 52 32 4 7 6 26 27 11 8 18 24 24 24 26 21 15 12 10 11 14 9 13 13 7 3 28 30 26 25 19 38 41 45 40 31 32 33 31 25
64 65 64 61 61 55 56 56 50 49 45 42 47 54 55 33 17 9 2 2 20 26 9 12 10 15 25 15 16 22 26 12 16 11 10 14 10 13 4 8 23 29 26 28 28 30 33 32 44 41 37 33 33 32
60 58 56 57 59 54 50 51 48 49 46 46 42 48 29 11 8 10 12 16 18 10 12 6 10 16 23 13 7 12 11 13 13 11 11 9 12 5 3 23 22 17 22 24 28 29 24 30 37 38 36 30 27 26
54 52 51 52 55 52 47 50 50 47 44 36 32 30 10 5 7 13 19 15 20 19 7 8 6 7 11 8 6 7 17 7 13 9 8 4 3 3 10 17 18 27 24 28 27 32 31 35 36 34 31 31 27 23
48 48 47 48 52 51 45 45 48 40 41 27 19 7 9 4 8 16 6 6 7 13 14 13 36 15 15 7 4 6 13 9 5 9 8 8 4 7 11 13 18 22 33 40 36 41 43 39 31 35 36 31 30 25
45 43 41 44 48 47 39 35 39 38 28 19 12 8 9 14 11 10 9 11 15 10 17 24 34 15 9 5 1 5 6 8 6 5 6 6 7 6 13 21 26 23 33 33 28 43 32 29 31 31 32 30 32 26
43 41 39 43 46 43 36 32 33 25 18 24 28 36 23 8 10 8 9 10 13 10 18 20 17 23 7 4 2 3 5 8 6 7 6 2 6 10 12 17 24 22 33 32 30 41 38 35 34 31 26 24 21 24
43 38 36 38 38 30 28 23 29 29 30 20 7 5 8 10 11 13 13 10 7 12 12 8 8 5 11 6 4 3 5 8 9 2 5 1 12 10 16 15 23 26 28 34 40 37 41 44 41 48 18 16 22 25
42 35 33 31 15 19 26 32 38 35 14 10 11 9 12 12 13 14 16 15 12 4 12 11 7 22 6 10 5 6 9 2 4 5 6 2 11 16 13 15 21 30 31 36 38 42 44 47 44 48 40 34 26 21
40 33 27 18 19 33 43 36 32 23 9 12 13 10 14 27 32 31 23 20 13 9 15 10 7 6 7 6 8 6 5 6 6 5 4 11 4 5 11 15 17 27 30 35 36 38 46 36 46 50 42 32 30 27
36 21 8 26 43 55 49 31 20 12 10 14 18 18 29 29 28 27 33 32 24 20 15 10 7 4 12 6 8 9 3 7 5 7 17 9 4 6 3 12 14 19 21 29 33 38 37 40 45 46 43 35 34 33
28 7 39 50 51 42 27 21 10 14 14 13 18 31 41 41 40 44 44 30 22 21 12 6 7 10 5 6 8 9 10 8 20 25 7 4 5 9 5 5 11 13 15 17 22 30 31 43 37 38 56 53 45 33
28 35 42 37 39 38 17 14 12 14 19 29 29 39 42 44 45 44 35 32 35 34 25 17 18 10 8 5 6 9 23 24 26 28 12 1 3 2 8 3 6 12 15 9 16 20 25 29 37 35 40 40 47 44
40 42 40 28 19 20 9 12 16 14 24 37 42 44 43 44 41 42 39 31 31 35 27 20 12 13 17 23 21 25 21 25 17 18 15 22 8 8 7 5 8 8 12 12 13 18 19 24 26 30 31 37 37 40
41 33 26 17 15 7 11 16 20 20 17 23 38 40 39 40 41 39 39 35 36 40 23 17 22 33 35 35 26 17 28 16 15 7 21 7 13 18 13 5 8 10 12 12 10 16 20 18 24 26 27 28 36 35
37 7 29 21 21 19 15 16 21 25 32 41 41 41 35 41 40 40 41 40 37 35 20 42 44 45 47 42 35 20 25 33 17 17 23 15 17 6 16 13 11 7 11 10 5 13 23 19 20 22 24 27 28 29
37 33 30 24 15 15 21 29 24 24 40 50 52 52 44 34 42 48 43 41 37 38 45 48 43 44 49 45 35 32 34 24 30 9 15 12 16 14 6 1 4 6 16 22 17 13 17 15 16 17 19 20 23 24
23 21 16 16 16 14 19 26 23 19 12 13 27 24 26 33 40 38 35 46 45 44 49 47 43 40 35 42 28 23 30 29 26 26 23 27 19 13 7 2 1 4 14 13 13 13 14 14 11 14 15 17 19 21
26 15 11 14 25 13 17 23 20 20 29 26 26 37 32 37 44 37 21 30 34 39 27 18 26 27 38 28 28 30 25 28 24 31 31 20 19 16 13 6 6 9 10 13 11 10 8 10 11 12 12 14 17 19
16 15 15 14 15 14 15 29 31 28 39 35 39 31 20 35 20 25 28 31 36 35 21 11 18 30 26 19 28 32 26 32 32 23 28 29 25 24 18 17 14 10 11 12 9 8 6 8 10 10 10 13 14 14
15 15 14 13 20 29 29 38 35 34 28 26 30 42 45 22 29 15 16 18 29 6 7 2 20 12 13 11 15 16 13 20 16 29 32 31 27 21 21 23 17 17 13 8 8 8 8 7 9 8 9 13 16 14
14 19 29 42 52 54 34 44 38 14 31 26 16 16 7 11 13 4 21 30 1 10 4 9 6 5 10 15 15 20 21 22 36 45 29 23 25 18 18 21 35 24 17 10 7 5 4 4 5 6 7 9 13 14
31 27 34 44 46 47 34 29 35 38 14 11 13 9 20 17 12 14 26 36 28 26 12 3 8 11 12 14 15 8 14 32 32 34 38 19 21 23 19 22 31 28 20 16 11 6 5 3 4 5 7 8 10 12
39 51 51 40 48 47 43 33 31 49 54 53 22 20 6 13 21 23 21 19 17 30 20 20 21 11 13 14 3 7 20 33 34 43 45 41 33 27 24 18 16 15 12 12 1 5 1 7 9 8 7 7 9 10
50 52 47 44 37 37 49 55 58 48 46 48 35 33 32 27 4 7 10 19 24 30 27 20 18 16 21 26 28 14 16 13 29 21 32 33 32 28 29 26 21 21 19 13 10 5 5 4 9 9 6 1 10 8
43 41 30 39 37 52 52 52 48 51 44 44 44 42 36 23 5 9 15 15 17 17 18 16 17 14 16 21 27 17 8 10 12 11 15 9 25 33 25 15 19 18 17 14 12 9 5 5 7 7 4 4 6 6
30 19 24 24 31 43 36 38 36 34 38 45 38 36 30 24 12 22 41 20 12 11 12 8 1 4 1 9 11 14 24 17 22 29 31 35 33 32 27 18 16 14 12 12 13 11 8 6 4 4 7 5 3 4
31 32 30 20 13 11 18 25 18 24 27 25 31 14 14 11 13 20 25 33 20 13 11 6 3 6 10 6 9 15 22 24 24 22 19 17 6 5 13 13 8 5 5 7 9 10 7 6 9 9 11 10 9 10
Wind_Direction_500mb
311 312 313 317 321 321 320 319 320 325 326 329 332 335 337 332 332 325 306 251 244 258 291 284 307 265 271 232 277 311 321 350 336 360 342 353 341 360 331 349 356 334 306 321 298 339 354 337 11 50 324 26 31 34
309 311 310 312 316 319 318 315 316 317 322 326 328 329 331 330 330 322 303 295 286 245 272 289 278 276 277 273 254 249 305 308 337 1 351 333 315 327 322 335 4 12 358 313 11 29 294 322 3 4 11 25 23 17
308 309 308 309 312 317 319 311 313 315 317 322 325 328 329 330 328 316 291 266 286 276 300 269 253 260 254 284 254 191 256 326 333 357 312 297 268 246 356 327 301 24 324 10 333 355 27 357 346 357 8 9 7 3
307 308 307 308 310 311 316 311 311 313 314 316 318 322 325 327 322 308 286 268 253 273 284 313 190 318 247 275 214 255 251 287 293 298 282 267 287 222 278 84 338 340 339 332 276 352 340 2 355 356 334 346 353 355
305 306 306 309 310 306 310 309 307 307 308 310 312 316 321 326 317 303 283 252 225 231 301 300 293 251 227 229 205 246 244 272 291 294 243 263 323 334 86 338 39 6 354 332 316 324 317 309 318 320 317 323 324 333
304 306 309 309 308 310 311 311 309 308 307 311 314 313 318 320 313 351 291 323 216 221 290 297 315 204 204 213 217 230 227 247 252 295 294 286 303 339 3 23 24 358 338 328 301 306 305 306 301 311 335 326 331 328
306 308 311 308 307 311 311 312 314 315 313 316 318 313 320 309 262 195 112 136 175 210 257 279 275 189 195 200 235 230 211 236 241 270 262 280 357 358 18 18 350 349 346 334 322 320 321 329 322 314 311 300 298 295
308 309 311 311 310 310 308 310 311 315 315 317 317 315 321 306 178 240 240 183 178 229 249 270 280 262 192 204 230 210 230 232 236 245 271 287 336 7 352 345 355 330 298 316 323 314 304 321 319 313 306 297 289 283
309 310 311 311 311 312 309 309 311 316 323 326 319 312 285 195 242 228 222 243 205 223 255 230 258 260 200 239 214 238 221 245 227 217 226 212 197 232 269 286 331 347 344 321 332 352 338 334 326 317 308 295 285 275
311 313 314 313 311 314 316 311 309 317 329 337 330 278 200 212 289 293 328 196 213 206 227 251 248 265 292 275 61 255 222 238 236 227 178 211 218 147 30 20 30 5 13 359 356 353 336 327 320 319 310 304 291 279
311 313 314 312 312 317 316 316 313 326 342 348 319 300 324 315 312 233 229 205 189 224 221 235 239 258 199 307 187 253 308 281 263 104 257 188 152 78 23 16 6 36 17 5 14 356 344 332 323 322 307 305 294 282
311 317 318 314 318 319 315 311 311 320 311 302 286 278 291 243 234 232 222 206 208 235 180 232 192 226 136 82 101 253 273 300 286 350 263 220 90 91 56 15 354 37 14 9 7 9 5 357 348 328 304 307 282 281
315 324 319 316 318 325 329 318 314 319 320 304 275 245 233 210 234 227 213 225 211 203 216 178 215 154 158 122 168 243 247 247 317 292 270 141 170 125 61 22 357 7 19 7 11 1 3 5 2 10 342 306 295 290
319 328 318 313 327 332 317 314 315 320 328 258 229 232 222 214 229 216 235 236 272 255 303 280 200 180 164 167 152 227 235 263 279 226 233 118 45 36 44 29 9 359 20 2 3 6 9 12 12 18 32 29 31 34
323 329 311 305 308 312 312 305 300 311 267 260 242 236 236 239 270 272 270 284 286 263 266 278 281 292 180 201 207 218 248 238 221 248 291 314 65 35 349 19 22 357 11 6 12 14 12 12 23 21 19 27 36 44
331 341 322 308 304 304 308 306 312 243 248 242 236 256 268 281 278 266 255 247 245 245 226 253 262 195 218 210 186 200 227 241 249 204 268 261 115 53 356 340 4 8 13 17 17 18 23 28 27 24 23 25 28 38
338 337 298 294 308 315 311 297 271 227 241 243 241 244 260 273 281 286 294 304 314 229 222 218 206 231 198 208 211 144 198 220 223 253 332 278 81 85 254 351 348 358 21 19 25 20 32 36 38 31 30 31 30 26
317 308 316 326 317 325 320 239 241 245 240 244 256 265 268 268 272 274 265 258 263 260 245 208 250 227 230 226 224 219 225 243 251 288 244 215 160 190 257 278 337 337 346 37 26 34 32 39 40 38 34 37 33 35
311 319 326 318 315 321 283 237 217 255 248 259 266 271 273 275 272 274 276 266 262 269 255 235 238 243 239 249 255 266 280 258 232 238 246 209 199 203 214 258 272 299 342 13 36 50 46 43 45 38 41 37 41 33
312 324 331 330 318 278 265 258 231 247 267 278 291 287 281 282 277 270 262 256 248 240 238 239 246 253 265 282 277 256 268 210 244 166 273 172 183 203 187 239 310 298 301 139 45 46 49 34 35 34 45 42 43 37
321 307 294 309 269 249 258 270 250 262 274 270 275 278 287 290 288 277 264 242 234 231 246 251 250 258 265 271 276 272 249 255 257 225 235 180 173 163 219 223 244 311 330 108 88 66 63 53 40 35 33 40 38 39
294 289 289 284 256 246 245 238 248 271 290 282 283 277 278 276 276 277 273 268 253 237 243 254 255 258 257 262 262 251 253 216 228 175 198 179 199 209 225 345 348 357 53 59 61 70 70 49 51 44 39 36 38 30
299 297 246 231 242 243 256 243 250 241 251 265 295 279 267 263 265 266 247 251 260 263 248 242 245 251 271 269 269 256 244 231 197 205 197 228 178 182 198 215 143 66 70 64 55 72 76 75 37 43 31 30 24 32
260 241 249 233 211 260 256 262 258 268 277 267 265 268 263 278 286 284 272 262 268 268 269 262 253 246 249 250 253 246 243 228 207 217 182 222 190 170 165 162 116 94 95 93 83 91 103 53 61 46 44 30 23 25
259 234 233 254 235 232 248 261 262 258 261 268 275 278 282 288 295 278 275 269 250 263 272 241 245 246 248 253 256 247 226 208 217 207 197 176 212 168 177 168 149 128 127 122 132 102 118 98 34 23 41 37 55 31
228 243 222 234 241 247 259 264 266 274 282 301 279 267 261 259 250 253 265 295 244 146 217 182 257 271 280 292 266 238 184 192 190 188 195 191 217 197 173 174 151 142 133 115 89 78 73 62 66 62 55 23 31 48
227 242 247 253 266 277 283 288 290 291 292 300 273 289 272 233 239 310 17 10 139 88 22 267 278 292 310 302 296 268 216 216 209 192 215 201 221 179 178 170 156 150 129 121 107 79 53 44 61 66 74 58 45 41
227 245 252 261 265 269 271 267 272 289 278 271 349 337 348 12 13 327 322 335 10 3 282 55 34 17 315 320 307 232 243 211 178 180 180 156 147 152 129 149 147 149 157 170 133 102 83 84 100 95 85 81 63 42
246 247 252 260 267 273 276 271 265 265 265 270 270 270 267 272 301 330 337 2 341 358 7 20 15 354 334 303 3 35 189 193 178 172 155 173 171 170 164 176 177 154 149 146 92 24 183 161 142 118 97 80 65 40
266 264 256 254 258 262 264 265 270 272 275 275 278 286 283 295 40 356 337 347 356 336 334 336 329 333 322 340 352 318 12 125 176 191 194 187 191 186 176 168 160 171 177 179 162 133 38 119 93 114 139 86 336 35
265 274 275 267 263 260 258 258 266 273 262 268 273 275 267 265 163 15 351 357 349 338 339 357 344 348 1 3 353 351 346 79 54 90 81 138 177 171 157 150 148 155 164 172 175 186 202 180 153 156 101 7 17 51
263 255 257 261 266 268 265 273 262 253 255 253 260 272 269 267 35 33 11 11 7 341 346 351 269 93 57 82 73 121 145 140 125 122 108 111 113 123 133 131 127 141 147 153 148 142 151 114 136 162 169 139 150 267
279 275 266 270 265 257 250 237 262 274 271 265 257 284 47 64 65 21 7 18 21 19 26 33 9 293 282 224 175 129 117 120 124 126 116 109 109 138 109 116 121 140 180 161 148 150 152 148 146 151 136 132 127 115
Wind_Speed_850mb
54 56 55 58 58 53 55 56 55 52 51 51 52 56 56 47 53 47 40 21 36 17 53 28 16 18 16 9 5 21 24 11 13 14 9 11 10 14 14 12 11 10 7 6 7 7 5 42 24 20 19 32 36 36
57 58 57 58 56 59 61 58 56 50 51 51 53 55 56 51 56 45 37 13 28 43 58 63 47 39 35 34 16 6 15 22 13 7 8 8 6 7 15 8 17 4 8 7 15 8 16 27 22 36 31 33 36 35
59 60 60 58 61 64 64 55 52 50 50 51 54 56 54 55 56 45 36 25 28 30 49 38 37 23 15 10 15 10 8 9 10 16 11 5 9 4 8 6 8 8 20 6 14 20 5 12 29 31 40 34 31 30
61 59 61 62 66 63 57 52 52 54 54 55 55 56 57 61 53 39 32 15 28 15 12 9 8 8 13 9 11 8 22 22 23 26 10 7 8 2 4 5 7 10 18 22 1 15 26 34 40 32 36 30 22 24
55 56 66 72 63 57 58 57 60 62 60 58 55 57 57 61 46 37 28 22 30 18 11 36 37 29 19 8 13 10 13 14 13 14 7 5 11 13 11 1 6 18 14 8 7 38 23 35 40 38 30 30 14 20
61 66 66 66 60 54 59 60 58 57 55 48 48 55 57 52 32 4 7 6 26 27 11 8 18 24 24 24 26 21 15 12 10 11 14 9 13 13 7 3 28 30 26 25 19 38 41 45 40 31 32 33 31 25
64 65 64 61 61 55 56 56 50 49 45 42 47 54 55 33 17 9 2 2 20 26 9 12 10 15 25 15 16 22 26 12 16 11 10 14 10 13 4 8 23 29 26 28 28 30 33 32 44 41 37 33 33 32
60 58 56 57 59 54 50 51 48 49 46 46 42 48 29 11 8 10 12 16 18 10 12 6 10 16 23 13 7 12 11 13 13 11 11 9 12 5 3 23 22 17 22 24 28 29 24 30 37 38 36 30 27 26
54 52 51 52 55 52 47 50 50 47 44 36 32 30 10 5 7 13 19 15 20 19 7 8 6 7 11 8 6 7 17 7 13 9 8 4 3 3 10 17 18 27 24 28 27 32 31 35 36 34 31 31 27 23
48 48 47 48 52 51 45 45 48 40 41 27 19 7 9 4 8 16 6 6 7 13 14 13 36 15 15 7 4 6 13 9 5 9 8 8 4 7 11 13 18 22 33 40 36 41 43 39 31 35 36 31 30 25
45 43 41 44 48 47 39 35 39 38 28 19 12 8 9 14 11 10 9 11 15 10 17 24 34 15 9 5 1 5 6 8 6 5 6 6 7 6 13 21 26 23 33 33 28 43 32 29 31 31 32 30 32 26
43 41 39 43 46 43 36 32 33 25 18 24 28 36 23 8 10 8 9 10 13 10 18 20 17 23 7 4 2 3 5 8 6 7 6 2 6 10 12 17 24 22 33 32 30 41 38 35 34 31 26 24 21 24
43 38 36 38 38 30 28 23 29 29 30 20 7 5 8 10 11 13 13 10 7 12 12 8 8 5 11 6 4 3 5 8 9 2 5 1 12 10 16 15 23 26 28 34 40 37 41 44 41 48 18 16 22 25
42 35 33 31 15 19 26 32 38 35 14 10 11 9 12 12 13 14 16 15 12 4 12 11 7 22 6 10 5 6 9 2 4 5 6 2 11 16 13 15 21 30 31 36 38 42 44 47 44 48 40 34 26 21
40 33 27 18 19 33 43 36 32 23 9 12 13 10 14 27 32 31 23 20 13 9 15 10 7 6 7 6 8 6 5 6 6 5 4 11 4 5 11 15 17 27 30 35 36 38 46 36 46 50 42 32 30 27
36 21 8 26 43 55 49 31 20 12 10 14 18 18 29 29 28 27 33 32 24 20 15 10 7 4 12 6 8 9 3 7 5 7 17 9 4 6 3 12 14 19 21 29 33 38 37 40 45 46 43 35 34 33
28 7 39 50 51 42 27 21 10 14 14 13 18 31 41 41 40 44 44 30 22 21 12 6 7 10 5 6 8 9 10 8 20 25 7 4 5 9 5 5 11 13 15 17 22 30 31 43 37 38 56 53 45 33
28 35 42 37 39 38 17 14 12 14 19 29 29 39 42 44 45 44 35 32 35 34 25 17 18 10 8 5 6 9 23 24 26 28 12 1 3 2 8 3 6 12 15 9 16 20 25 29 37 35 40 40 47 44
40 42 40 28 19 20 9 12 16 14 24 37 42 44 43 44 41 42 39 31 31 35 27 20 12 13 17 23 21 25 21 25 17 18 15 22 8 8 7 5 8 8 12 12 13 18 19 24 26 30 31 37 37 40
41 33 26 17 15 7 11 16 20 20 17 23 38 40 39 40 41 39 39 35 36 40 23 17 22 33 35 35 26 17 28 16 15 7 21 7 13 18 13 5 8 10 12 12 10 16 20 18 24 26 27 28 36 35
37 7 29 21 21 19 15 16 21 25 32 41 41 41 35 41 40 40 41 40 37 35 20 42 44 45 47 42 35 20 25 33 17 17 23 15 17 6 16 13 11 7 11 10 5 13 23 19 20 22 24 27 28 29
37 33 30 24 15 15 21 29 24 24 40 50 52 52 44 34 42 48 43 41 37 38 45 48 43 44 49 45 35 32 34 24 30 9 15 12 16 14 6 1 4 6 16 22 17 13 17 15 16 17 19 20 23 24
23 21 16 16 16 14 19 26 23 19 12 13 27 24 26 33 40 38 35 46 45 44 49 47 43 40 35 42 28 23 30 29 26 26 23 27 19 13 7 2 1 4 14 13 13 13 14 14 11 14 15 17 19 21
26 15 11 14 25 13 17 23 20 20 29 26 26 37 32 37 44 37 21 30 34 39 27 18 26 27 38 28 28 30 25 28 24 31 31 20 19 16 13 6 6 9 10 13 11 10 8 10 11 12 12 14 17 19
16 15 15 14 15 14 15 29 31 28 39 35 39 31 20 35 20 25 28 31 36 35 21 11 18 30 26 19 28 32 26 32 32 23 28 29 25 24 18 17 14 10 11 12 9 8 6 8 10 10 10 13 14 14
15 15 14 13 20 29 29 38 35 34 28 26 30 42 45 22 29 15 16 18 29 6 7 2 20 12 13 11 15 16 13 20 16 29 32 31 27 21 21 23 17 17 13 8 8 8 8 7 9 8 9 13 16 14
14 19 29 42 52 54 34 44 38 14 31 26 16 16 7 11 13 4 21 30 1 10 4 9 6 5 10 15 15 20 21 22 36 45 29 23 25 18 18 21 35 24 17 10 7 5 4 4 5 6 7 9 13 14
31 27 34 44 46 47 34 29 35 38 14 11 13 9 20 17 12 14 26 36 28 26 12 3 8 11 12 14 15 8 14 32 32 34 38 19 21 23 19 22 31 28 20 16 11 6 5 3 4 5 7 8 10 12
39 51 51 40 48 47 43 33 31 49 54 53 22 20 6 13 21 23 21 19 17 30 20 20 21 11 13 14 3 7 20 33 34 43 45 41 33 27 24 18 16 15 12 12 1 5 1 7 9 8 7 7 9 10
50 52 47 44 37 37 49 55 58 48 46 48 35 33 32 27 4 7 10 19 24 30 27 20 18 16 21 26 28 14 16 13 29 21 32 33 32 28 29 26 21 21 19 13 10 5 5 4 9 9 6 1 10 8
43 41 30 39 37 52 52 52 48 51 44 44 44 42 36 23 5 9 15 15 17 17 18 16 17 14 16 21 27 17 8 10 12 11 15 9 25 33 25 15 19 18 17 14 12 9 5 5 7 7 4 4 6 6
30 19 24 24 31 43 36 38 36 34 38 45 38 36 30 24 12 22 41 20 12 11 12 8 1 4 1 9 11 14 24 17 22 29 31 35 33 32 27 18 16 14 12 12 13 11 8 6 4 4 7 5 3 4
31 32 30 20 13 11 18 25 18 24 27 25 31 14 14 11 13 20 25 33 20 13 11 6 3 6 10 6 9 15 22 24 24 22 19 17 6 5 13 13 8 5 5 7 9 10 7 6 9 9 11 10 9 10
Wind_Direction_850mb
311 312 313 317 321 321 320 319 320 325 326 329 332 335 337 332 332 325 306 251 244 258 291 284 307 265 271 232 277 311 321 350 336 360 342 353 341 360 331 349 356 334 306 321 298 339 354 337 11 50 324 26 31 34
309 311 310 312 316 319 318 315 316 317 322 326 328 329 331 330 330 322 303 295 286 245 272 289 278 276 277 273 254 249 305 308 337 1 351 333 315 327 322 335 4 12 358 313 11 29 294 322 3 4 11 25 23 17
308 309 308 309 312 317 319 311 313 315 317 322 325 328 329 330 328 316 291 266 286 276 300 269 253 260 254 284 254 191 256 326 333 357 312 297 268 246 356 327 301 24 324 10 333 355 27 357 346 357 8 9 7 3
307 308 307 308 310 311 316 311 311 313 314 316 318 322 325 327 322 308 286 268 253 273 284 313 190 318 247 275 214 255 251 287 293 298 282 267 287 222 278 84 338 340 339 332 276 352 340 2 355 356 334 346 353 355
305 306 306 309 310 306 310 309 307 307 308 310 312 316 321 326 317 303 283 252 225 231 301 300 293 251 227 229 205 246 244 272 291 294 243 263 323 334 86 338 39 6 354 332 316 324 317 309 318 320 317 323 324 333
304 306 309 309 308 310 311 311 309 308 307 311 314 313 318 320 313 351 291 323 216 221 290 297 315 204 204 213 217 230 227 247 252 295 294 286 303 339 3 23 24 358 338 328 301 306 305 306 301 311 335 326 331 328
306 308 311 308 307 311 311 312 314 315 313 316 318 313 320 309 262 195 112 136 175 210 257 279 275 189 195 200 235 230 211 236 241 270 262 280 357 358 18 18 350 349 346 334 322 320 321 329 322 314 311 300 298 295
308 309 311 311 310 310 308 310 311 315 315 317 317 315 321 306 178 240 240 183 178 229 249 270 280 262 192 204 230 210 230 232 236 245 271 287 336 7 352 345 355 330 298 316 323 314 304 321 319 313 306 297 289 283
309 310 311 311 311 312 309 309 311 316 323 326 319 312 285 195 242 228 222 243 205 223 255 230 258 260 200 239 214 238 221 245 227 217 226 212 197 232 269 286 331 347 344 321 332 352 338 334 326 317 308 295 285 275
311 313 314 313 311 314 316 311 309 317 329 337 330 278 200 212 289 293 328 196 213 206 227 251 248 265 292 275 61 255 222 238 236 227 178 211 218 147 30 20 30 5 13 359 356 353 336 327 320 319 310 304 291 279
311 313 314 312 312 317 316 316 313 326 342 348 319 300 324 315 312 233 229 205 189 224 221 235 239 258 199 307 187 253 308 281 263 104 257 188 152 78 23 16 6 36 17 5 14 356 344 332 323 322 307 305 294 282
311 317 318 314 318 319 315 311 311 320 311 302 286 278 291 243 234 232 222 206 208 235 180 232 192 226 136 82 101 253 273 300 286 350 263 220 90 91 56 15 354 37 14 9 7 9 5 357 348 328 304 307 282 281
315 324 319 316 318 325 329 318 314 319 320 304 275 245 233 210 234 227 213 225 211 203 216 178 215 154 158 122 168 243 247 247 317 292 270 141 170 125 61 22 357 7 19 7 11 1 3 5 2 10 342 306 295 290
319 328 318 313 327 332 317 314 315 320 328 258 229 232 222 214 229 216 235 236 272 255 303 280 200 180 164 167 152 227 235 263 279 226 233 118 45 36 44 29 9 359 20 2 3 6 9 12 12 18 32 29 31 34
323 329 311 305 308 312 312 305 300 311 267 260 242 236 236 239 270 272 270 284 286 263 266 278 281 292 180 201 207 218 248 238 221 248 291 314 65 35 349 19 22 357 11 6 12 14 12 12 23 21 19 27 36 44
331 341 322 308 304 304 308 306 312 243 248 242 236 256 268 281 278 266 255 247 245 245 226 253 262 195 218 210 186 200 227 241 249 204 268 261 115 53 356 340 4 8 13 17 17 18 23 28 27 24 23 25 28 38
338 337 298 294 308 315 311 297 271 227 241 243 241 244 260 273 281 286 294 304 314 229 222 218 206 231 198 208 211 144 198 220 223 253 332 278 81 85 254 351 348 358 21 19 25 20 32 36 38 31 30 31 30 26
317 308 316 326 317 325 320 239 241 245 240 244 256 265 268 268 272 274 265 258 263 260 245 208 250 227 230 226 224 219 225 243 251 288 244 215 160 190 257 278 337 337 346 37 26 34 32 39 40 38 34 37 33 35
311 319 326 318 315 321 283 237 217 255 248 259 266 271 273 275 272 274 276 266 262 269 255 235 238 243 239 249 255 266 280 258 232 238 246 209 199 203 214 258 272 299 342 13 36 50 46 43 45 38 41 37 41 33
312 324 331 330 318 278 265 258 231 247 267 278 291 287 281 282 277 270 262 256 248 240 238 239 246 253 265 282 277 256 268 210 244 166 273 172 183 203 187 239 310 298 301 139 45 46 49 34 35 34 45 42 43 37
321 307 294 309 269 249 258 270 250 262 274 270 275 278 287 290 288 277 264 242 234 231 246 251 250 258 265 271 276 272 249 255 257 225 235 180 173 163 219 223 244 311 330 108 88 66 63 53 40 35 33 40 38 39
294 289 289 284 256 246 245 238 248 271 290 282 283 277 278 276 276 277 273 268 253 237 243 254 255 258 257 262 262 251 253 216 228 175 198 179 199 209 225 345 348 357 53 59 61 70 70 49 51 44 39 36 38 30
299 297 246 231 242 243 256 243 250 241 251 265 295 279 267 263 265 266 247 251 260 263 248 242 245 251 271 269 269 256 244 231 197 205 197 228 178 182 198 215 143 66 70 64 55 72 76 75 37 43 31 30 24 32
260 241 249 233 211 260 256 262 258 268 277 267 265 268 263 278 286 284 272 262 268 268 269 262 253 246 249 250 253 246 243 228 207 217 182 222 190 170 165 162 116 94 95 93 83 91 103 53 61 46 44 30 23 25
259 234 233 254 235 232 248 261 262 258 261 268 275 278 282 288 295 278 275 269 250 263 272 241 245 246 248 253 256 247 226 208 217 207 197 176 212 168 177 168 149 128 127 122 132 102 118 98 34 23 41 37 55 31
228 243 222 234 241 247 259 264 266 274 282 301 279 267 261 259 250 253 265 295 244 146 217 182 257 271 280 292 266 238 184 192 190 188 195 191 217 197 173 174 151 142 133 115 89 78 73 62 66 62 55 23 31 48
227 242 247 253 266 277 283 288 290 291 292 300 273 289 272 233 239 310 17 10 139 88 22 267 278 292 310 302 296 268 216 216 209 192 215 201 221 179 178 170 156 150 129 121 107 79 53 44 61 66 74 58 45 41
227 245 252 261 265 269 271 267 272 289 278 271 349 337 348 12 13 327 322 335 10 3 282 55 34 17 315 320 307 232 243 211 178 180 180 156 147 152 129 149 147 149 157 170 133 102 83 84 100 95 85 81 63 42
246 247 252 260 267 273 276 271 265 265 265 270 270 270 267 272 301 330 337 2 341 358 7 20 15 354 334 303 3 35 189 193 178 172 155 173 171 170 164 176 177 154 149 146 92 24 183 161 142 118 97 80 65 40
266 264 256 254 258 262 264 265 270 272 275 275 278 286 283 295 40 356 337 347 356 336 334 336 329 333 322 340 352 318 12 125 176 191 194 187 191 186 176 168 160 171 177 179 162 133 38 119 93 114 139 86 336 35
265 274 275 267 263 260 258 258 266 273 262 268 273 275 267 265 163 15 351 357 349 338 339 357 344 348 1 3 353 351 346 79 54 90 81 138 177 171 157 150 148 155 164 172 175 186 202 180 153 156 101 7 17 51
263 255 257 261 266 268 265 273 262 253 255 253 260 272 269 267 35 33 11 11 7 341 346 351 269 93 57 82 73 121 145 140 125 122 108 111 113 123 133 131 127 141 147 153 148 142 151 114 136 162 169 139 150 267
279 275 266 270 265 257 250 237 262 274 271 265 257 284 47 64 65 21 7 18 21 19 26 33 9 293 282 224 175 129 117 120 124 126 116 109 109 138 109 116 121 140 180 161 148 150 152 148 146 151 136 132 127 115